Location: ????? ???????
(25.7275°N, 32.5929°E)
Time: 11:49:30
(UTC+00:00)

Cosmos 2333 Rocket - Pass Details

Date: 02 March 2021
Orbit: 837 x 864 km, 70.8° (Epoch: 15 April)

Event Time Altitude Azimuth Distance (km) Brightness Sun altitude
Rises 17:11:03 0° 192° (SSW) 3,375 5.5 -18.6°
Reaches altitude 10° 17:13:29 10° 190° (S) 2,446 4.7 -19.1°
Maximum altitude 17:19:04 72° 107° (ESE) 883 2.1 -20.4°
Drops below altitude 10° 17:24:43 10° 23° (NNE) 2,471 4.4 -21.7°
Enters shadow 17:26:03 - 22° (NNE) 2,981 4.9 -22.0°
